Location: Kaseke
(18.0171°S, 31.0526°E)
Time: 12:05:05
(UTC+00:00)

CZ-4B DEB - Pass Details

Date: 14 July 2020
Orbit: 840 x 862 km, 99.1° (Epoch: 07 August)

Event Time Altitude Azimuth Distance (km) Brightness Sun altitude
Rises 03:11:00 0° 6° (N) 3,380 7.7 -17.9°
Reaches altitude 10° 03:13:22 10° 3° (N) 2,453 6.9 -17.4°
Maximum altitude 03:18:45 63° 282° (WNW) 945 4.2 -16.2°
Drops below altitude 10° 03:24:13 10° 201° (SSW) 2,491 6.3 -15.0°
Enters shadow 03:25:28 - 199° (SSW) 2,978 6.7 -14.7°
